BEIDOU-3 G2

Last updated on Tue Sep 22 2026 00:03:15 GMT+0000 (Coordinated Universal Time)

1 45344U 20017A 26264.36236345 -.00000142 00000+0 00000+0 0 9998 2 45344 2.5991 48.5199 0002230 129.0647 33.1876 1.00272378 24228
UTC large
Height (km)
Speed (km/s)
/
Latitude / Longitude
Inclination (degrees)
Orbital Period (minutes)
Azimuth
Elevation
Range (km)
Doppler Factor

Next 0 passes for location: London (51.5072 / 0.1276)

No passes found over London.
BEIDOU-3 G2